Location: Burera
(21.3780°N, 81.9534°E)
Time: 12:44:41
(UTC+00:00)

Cosmos 1953 Rocket - Pass Details

Date: 13 August 2020
Orbit: 604 x 635 km, 82.5° (Epoch: 21 September)

Event Time Altitude Azimuth Distance (km) Brightness Sun altitude
Rises 21:56:59 0° 3° (N) 2,919 7.5 -29.3°
Reaches altitude 10° 21:59:18 10° 8° (N) 2,006 6.6 -28.9°
Maximum altitude 22:03:36 49° 84° (E) 805 4.4 -28.0°
Enters shadow 22:03:50 49° 95° (E) 811 4.3 -28.0°
